Location: Passau
(48.5830°N, 13.4830°E)
Time: 09:51:14
(UTC+01:00)

NOAA 19 - Pass Details

Date: 02 December 2021
Orbit: 841 x 860 km, 99.2° (Epoch: 26 January)

Event Time Altitude Azimuth Distance (km) Brightness Sun altitude
Rises 18:16:21 0° 153° (SSE) 3,384 8.2 -19.7°
Reaches altitude 10° 18:18:42 10° 150° (SSE) 2,454 7.4 -20.1°
Maximum altitude 18:24:05 65° 70° (ENE) 923 5.1 -20.9°
Drops below altitude 10° 18:29:31 10° 350° (N) 2,478 7.6 -21.8°
Sets 18:31:54 0° 347° (NNW) 3,420 8.4 -22.2°
